When you browse on this site, cookies collect data to enhance your experience and personalize the content and advertising you see.
Visit our Privacy Policy to learn more. By continuing to use the site, you agree to this use of cookies and data.
  • In Belgium
  • List of Countries
  • For 7 days
  • Water Temperature
  • Weather Map
  • Weather Widgets
  • user-avatar
    Login

    Hourly Weather Nkongsamba

    Today, 19 November, Tuesday

    Time Temperature Precipitation Wind Pressure Humidity
    00:00 +21°C° 0 mm 1 mps 684 mmHg 91%
    01:00 +21°C° 0 mm 1 mps 684 mmHg 91%
    02:00 +21°C° 0 mm 1 mps 684 mmHg 91%
    03:00 +21°C° 0 mm 1 mps 684 mmHg 91%
    04:00 +18°C° 0 mm 0 mps 683 mmHg 91%
    05:00 +19°C° 0 mm 0 mps 684 mmHg 89%
    06:00 +19°C° 0 mm 0 mps 684 mmHg 87%
    07:00 +19°C° 0 mm 0 mps 685 mmHg 85%
    08:00 +22°C° 0 mm 0 mps 685 mmHg 75%
    09:00 +26°C° 0 mm 1 mps 686 mmHg 65%
    10:00 +29°C° 0 mm 1 mps 686 mmHg 55%
    11:00 +30°C° 0 mm 1 mps 686 mmHg 50%
    12:00 +31°C° 0 mm 1 mps 686 mmHg 46%
    13:00 +32°C° 0 mm 1 mps 685 mmHg 41%
    14:00 +32°C° 0 mm 1 mps 685 mmHg 42%
    15:00 +31°C° 0 mm 1 mps 684 mmHg 43%
    16:00 +31°C° 0 mm 1 mps 684 mmHg 43%
    17:00 +28°C° 0.2 mm 1 mps 684 mmHg 57%
    18:00 +26°C° 0.2 mm 1 mps 684 mmHg 71%
    19:00 +21°C° 0.2 mm 0 mps 683 mmHg 84%
    20:00 +21°C° 0.1 mm 0 mps 684 mmHg 86%
    21:00 +20°C° 0.1 mm 0 mps 684 mmHg 87%
    22:00 +20°C° 0.1 mm 0 mps 685 mmHg 88%
    23:00 +20°C° 0 mm 0 mps 684 mmHg 89%

    Tomorrow, 20 November, Wednesday

    Time Temperature Precipitation Wind Pressure Humidity
    00:00 +19°C° 0 mm 0 mps 684 mmHg 91%
    01:00 +19°C° 0 mm 0 mps 684 mmHg 92%
    02:00 +19°C° 0 mm 0 mps 684 mmHg 92%
    03:00 +19°C° 0 mm 0 mps 683 mmHg 92%
    04:00 +19°C° 0 mm 0 mps 683 mmHg 92%
    05:00 +19°C° 0 mm 0 mps 684 mmHg 90%
    06:00 +19°C° 0 mm 0 mps 684 mmHg 89%
    07:00 +20°C° 0 mm 0 mps 685 mmHg 87%
    08:00 +22°C° 0 mm 0 mps 685 mmHg 79%
    09:00 +24°C° 0 mm 0 mps 686 mmHg 71%
    10:00 +28°C° 0 mm 1 mps 686 mmHg 63%
    11:00 +29°C° 0.1 mm 1 mps 686 mmHg 59%
    12:00 +30°C° 0.1 mm 1 mps 685 mmHg 55%
    13:00 +31°C° 0.1 mm 1 mps 685 mmHg 51%
    14:00 +30°C° 0.4 mm 1 mps 684 mmHg 55%
    15:00 +30°C° 0.4 mm 1 mps 684 mmHg 58%
    16:00 +29°C° 0.4 mm 1 mps 683 mmHg 62%
    17:00 +27°C° 0.5 mm 1 mps 683 mmHg 73%
    18:00 +23°C° 0.5 mm 0 mps 683 mmHg 84%
    19:00 +21°C° 0.5 mm 0 mps 683 mmHg 95%
    20:00 +20°C° 0.3 mm 0 mps 684 mmHg 95%
    21:00 +20°C° 0.3 mm 0 mps 684 mmHg 96%
    22:00 +20°C° 0.3 mm 0 mps 685 mmHg 96%
    23:00 +20°C° 0.3 mm 0 mps 685 mmHg 96%

    Day after tomorrow, 21 November, Thursday

    Time Temperature Precipitation Wind Pressure Humidity
    00:00 +20°C° 0.3 mm 0 mps 684 mmHg 96%
    01:00 +19°C° 0.3 mm 0 mps 684 mmHg 96%
    02:00 +19°C° 0 mm 0 mps 684 mmHg 96%
    03:00 +19°C° 0 mm 0 mps 683 mmHg 96%
    04:00 +19°C° 0 mm 0 mps 683 mmHg 96%
    05:00 +19°C° 0 mm 0 mps 684 mmHg 95%
    06:00 +19°C° 0 mm 0 mps 684 mmHg 94%
    07:00 +20°C° 0 mm 0 mps 684 mmHg 93%
    08:00 +21°C° 0 mm 0 mps 685 mmHg 85%
    09:00 +23°C° 0 mm 0 mps 685 mmHg 78%
    10:00 +25°C° 0 mm 0 mps 686 mmHg 71%
    11:00 +28°C° 0.3 mm 1 mps 685 mmHg 68%
    12:00 +29°C° 0.3 mm 1 mps 685 mmHg 65%
    13:00 +29°C° 0.3 mm 1 mps 684 mmHg 62%
    14:00 +28°C° 0.8 mm 1 mps 684 mmHg 67%
    15:00 +27°C° 0.8 mm 1 mps 683 mmHg 73%
    16:00 +27°C° 0.8 mm 1 mps 683 mmHg 78%
    17:00 +25°C° 0.5 mm 1 mps 683 mmHg 84%
    18:00 +24°C° 0.5 mm 1 mps 683 mmHg 90%
    19:00 +20°C° 0.5 mm 0 mps 683 mmHg 96%
    20:00 +20°C° 0.1 mm 0 mps 684 mmHg 96%
    21:00 +20°C° 0.1 mm 0 mps 684 mmHg 97%
    22:00 +20°C° 0.1 mm 0 mps 685 mmHg 97%
    23:00 +20°C° 0 mm 0 mps 685 mmHg 97%

    22 November, Friday

    Time Temperature Precipitation Wind Pressure Humidity
    00:00 +19°C° 0 mm 0 mps 684 mmHg 97%
    01:00 +19°C° 0 mm 0 mps 684 mmHg 97%
    02:00 +19°C° 0 mm 0 mps 684 mmHg 97%
    03:00 +19°C° 0 mm 0 mps 684 mmHg 97%
    04:00 +19°C° 0 mm 0 mps 684 mmHg 97%
    05:00 +19°C° 0 mm 0 mps 684 mmHg 97%
    06:00 +19°C° 0 mm 0 mps 685 mmHg 96%
    07:00 +20°C° 0 mm 0 mps 685 mmHg 96%
    08:00 +21°C° 0.2 mm 0 mps 685 mmHg 90%
    09:00 +24°C° 0.2 mm 1 mps 686 mmHg 85%
    10:00 +26°C° 0.2 mm 1 mps 687 mmHg 80%
    11:00 +26°C° 0.4 mm 1 mps 686 mmHg 77%
    12:00 +27°C° 0.4 mm 1 mps 685 mmHg 75%
    13:00 +27°C° 0.4 mm 1 mps 685 mmHg 72%
    14:00 +26°C° 0.6 mm 1 mps 684 mmHg 76%
    15:00 +26°C° 0.6 mm 1 mps 684 mmHg 79%
    16:00 +25°C° 0.6 mm 1 mps 684 mmHg 82%
    17:00 +24°C° 0.3 mm 1 mps 684 mmHg 87%
    18:00 +21°C° 0.3 mm 0 mps 684 mmHg 92%
    19:00 +19°C° 0.3 mm 0 mps 684 mmHg 97%
    20:00 +19°C° 0.2 mm 0 mps 685 mmHg 97%
    21:00 +19°C° 0.2 mm 0 mps 685 mmHg 97%
    22:00 +19°C° 0.2 mm 0 mps 686 mmHg 97%
    23:00 +19°C° 0.1 mm 0 mps 686 mmHg 98%

    23 November, Saturday

    Time Temperature Precipitation Wind Pressure Humidity
    00:00 +19°C° 0.1 mm 0 mps 686 mmHg 98%
    01:00 +18°C° 0.1 mm 0 mps 686 mmHg 98%
    02:00 +18°C° 0 mm 0 mps 685 mmHg 97%
    03:00 +18°C° 0 mm 0 mps 685 mmHg 97%
    04:00 +18°C° 0 mm 0 mps 685 mmHg 97%
    05:00 +18°C° 0 mm 0 mps 685 mmHg 96%
    06:00 +18°C° 0 mm 0 mps 685 mmHg 95%
    07:00 +19°C° 0 mm 0 mps 685 mmHg 95%
    08:00 +20°C° 0 mm 0 mps 686 mmHg 87%
    09:00 +22°C° 0 mm 0 mps 687 mmHg 80%
    10:00 +24°C° 0 mm 0 mps 687 mmHg 73%
    11:00 +27°C° 0.1 mm 1 mps 687 mmHg 70%
    12:00 +27°C° 0.1 mm 1 mps 686 mmHg 68%
    13:00 +28°C° 0.1 mm 1 mps 685 mmHg 65%
    14:00 +27°C° 0.4 mm 1 mps 685 mmHg 70%
    15:00 +26°C° 0.4 mm 1 mps 684 mmHg 75%
    16:00 +25°C° 0.4 mm 1 mps 684 mmHg 79%
    17:00 +24°C° 0.2 mm 1 mps 684 mmHg 84%
    18:00 +21°C° 0.2 mm 0 mps 684 mmHg 89%
    19:00 +20°C° 0.2 mm 0 mps 684 mmHg 94%
    20:00 +20°C° 0 mm 0 mps 684 mmHg 95%
    21:00 +19°C° 0 mm 0 mps 685 mmHg 96%
    22:00 +19°C° 0 mm 0 mps 685 mmHg 96%
    23:00 +19°C° 0 mm 0 mps 685 mmHg 96%

    24 November, Sunday

    Time Temperature Precipitation Wind Pressure Humidity
    00:00 +19°C° 0 mm 0 mps 685 mmHg 96%
    01:00 +19°C° 0 mm 0 mps 685 mmHg 97%
    02:00 +19°C° 0 mm 0 mps 685 mmHg 96%
    03:00 +18°C° 0 mm 0 mps 684 mmHg 96%
    04:00 +18°C° 0 mm 0 mps 684 mmHg 96%
    05:00 +19°C° 0 mm 0 mps 684 mmHg 95%
    06:00 +19°C° 0 mm 0 mps 685 mmHg 93%
    07:00 +19°C° 0 mm 0 mps 685 mmHg 92%
    08:00 +21°C° 0 mm 0 mps 686 mmHg 84%
    09:00 +24°C° 0 mm 0 mps 686 mmHg 75%
    10:00 +28°C° 0 mm 1 mps 687 mmHg 67%
    11:00 +29°C° 0.1 mm 1 mps 686 mmHg 62%
    12:00 +29°C° 0.1 mm 1 mps 686 mmHg 57%
    13:00 +30°C° 0.1 mm 1 mps 685 mmHg 52%
    14:00 +30°C° 0.2 mm 1 mps 685 mmHg 57%
    15:00 +29°C° 0.2 mm 1 mps 684 mmHg 62%
    16:00 +28°C° 0.2 mm 1 mps 683 mmHg 67%
    17:00 +26°C° 0.6 mm 1 mps 683 mmHg 76%
    18:00 +24°C° 0.6 mm 1 mps 683 mmHg 85%
    19:00 +20°C° 0.6 mm 0 mps 683 mmHg 94%
    20:00 +20°C° 0.2 mm 0 mps 684 mmHg 95%
    21:00 +20°C° 0.2 mm 0 mps 684 mmHg 96%
    22:00 +20°C° 0.2 mm 0 mps 685 mmHg 97%
    23:00 +19°C° 0.1 mm 0 mps 685 mmHg 97%
    Show more